DECAYED
Showing default

UMBRA-04, 55050 (Decayed)

Orbit data source: Space-Track

UMBRA-04, 55050 was a payload satellite owned by Umbra Labs (US) in LEO that was launched on Tue, 03 Jan 2023 UTC via an FALCON 9 launch vehicle from the Air Force Eastern Test Range (AFETR). Payload-class satellites include a variety of spacecraft equipped with specific instruments for various scientific and technological missions. These include communications satellites like Starlink; space stations such as the ISS; scientific satellites like the Hubble; Earth observation satellites from companies like Planet Labs, Umbra, and HawkEye 360; GPS; miniature CubeSats for education and research; and military/defense satellites.

Not visible in the next 10 days
Identifier
55050, 2023-001AT
Orbit
Decayed
Last TLE update
10 months ago
Origin
Manufacturer
Umbra Labs
Mission
Decayed Commercial Radar Imaging
Bus & Motor
UMBRA, Unknown motor
Mass
65 kg wet, 60 kg dry
Launch date (UTC)
2023-01-03 (3 years ago)
Launch vehicle
FALCON 9
Launch site
Air Force Eastern Test Range (AFETR)
Object type
Payload
Rocket body
Debris
Shape & HBR
Box + 2 Pan + 1 Dish, 3.8 m
Radar Cross Section
0.929 m², Large (>1 m²)

Expand to show TLE details & history

TLE from 10 months ago
0 UMBRA-04
1 55050U 23001AT  24246.98599713  .20226663  24977-5  31425-2 0  9998
2 55050  97.3877 313.4904 0017483 262.0518 227.1582 16.33537619 92977
Epoch: 2024-09-02T23:39Z
TLE epoch observation values (Epoch: 2024-09-02T23:39:50.152Z)
Latitude
50.46362°
Longitude
164.90892°
Altitude
199.045 km
Speed
7.787 km/s
True Right ascension
09h 29m 54s
True Declination
50° 16' 49"
Sunlit
Object was in daylight at epoch
Visualization orbit readout
Visualization observer readout
Orbital elements
Apogee altitude
191.331 km
Perigee altitude
168.4 km
Semi-major axis
6,558.002 km
Eccentricity
0.00175
Inclination
97.3877°
RAAN
313.4904°
Arg. of periapsis
262.0518°
True anomaly
Unknown
Mean anomaly
227.1582°
Eccentric anomaly
Unknown
Mean motion
4.08682 °/min
Orbital period
88.09 mins
BSTAR
0.0031425
Loading maneuver chart data...
Loading SW <> Apogee altitude chart data...
Loading historical data...
Loading historical data...
Loading historical data...
Loading historical data...
Loading historical data...
Loading historical data...
Loading historical data...

UMBRA-04 Visibility

Observer location: undefined°, undefined°

This satellite is decayed
Span
Click to sort rows by Start time (UTC) header in descending order
Start Az.
Max El. time (UTC)
Max El. Az.
Max El.
End time (UTC)
End Az.
|